Regional Weather Roundup
Issued by NWS Grand Forks, ND

Home | Current Version | Previous Version | Text Only | Print | Product List | Glossary Off
Versions: 1 2 3 4 5 6 7 8 9 10 11 12 13 14 15 16 17 18 19 20 21 22 23 24 25 26 27 28 29 30 31 32 33 34 35 36 37 38 39 40 41 42 43 44 45 46 47 48 49 50

000
ASUS43 KFGF 221331
RWRFGF
PRAIRIE TO PINES  WEATHER ROUNDUP
NATIONAL WEATHER SERVICE EASTERN NORTH DAKOTA/GRAND FORKS ND
800 AM CDT MON MAY 22 2017

 **SATELLITE DATA USED TO AUGMENT SKY COVER AT AUTOMATED STATIONS**
 *****  WEATHER ACROSS EASTERN NORTH DAKOTA  *****

CITY           SKY/WX    TMP DP  RH WIND       PRES   REMARKS
GRAND FORKS    CLOUDY    51  45  79 NW15      29.83S
GRAND FRKS AFB FAIR      48  43  81 N13       29.84S
DEVILS LAKE    CLOUDY    48  40  73 NW12      29.90R
FARGO          PTSUNNY   49  43  80 W9G23     29.84F
WAHPETON ARPT  FAIR      46  41  81 W8        29.88R
$$

 ***** WEATHER ACROSS CENTRAL AND WESTERN NORTH DAKOTA  *****

CITY           SKY/WX    TMP DP  RH WIND       PRES   REMARKS
BISMARCK       PTSUNNY   50  37  61 NE5       29.94R
MINOT          FAIR      52  41  66 NW9       29.96R
JAMESTOWN      CLOUDY    48  43  82 N9        29.89R
MINOT AFB      FAIR      48  42  79 NW7       29.96R
GARRISON         N/A     47  40  76 N3        29.95R
WILLISTON      CLOUDY    49  43  80 N8        30.01R
DICKINSON      PTSUNNY   45  40  82 W13       29.95R
HETTINGER      FAIR      47  43  86 NW17      29.98R
$$

 *****  OTHER AIRPORT OBSERVATIONS IN OUR AREA  *****

CITY           SKY/WX    TMP DP  RH WIND       PRES   REMARKS
WALHALLA       NOT AVBL
GRAFTON AIRPOR FAIR      50  46  87 N14G28    29.86S
VALLEY CITY AR NOT AVBL
CANDO          NOT AVBL
CAVALIER APRT  PTSUNNY   50  43  76 N14G22    29.85S
GWINNER        SUNNY     46  45  93 MISG      29.90R
SHEYENNE NWR     N/A     46  44  91 W3        29.95S
ROLLA          FAIR      48  39  71 N14       29.92S
 ***** THE ABOVE OBSERVATIONS ARE NON NWS ARE NOT QUALITY
       CONTROLLED AND MAY MIS-REPORT RAIN FOR SNOW...
$$

  *****  WEATHER ACROSS NORTHERN MINNESOTA  *****

CITY           SKY/WX    TMP DP  RH WIND       PRES   REMARKS
FLAG ISLAND    LGT RAIN  45  43  93 NW16      29.75S
WARROAD        CLOUDY    45  43  93 NW10      29.77S
ROSEAU         PTSUNNY   48  43  81 N14       29.78S
HALLOCK        FAIR      48  45  87 N15       29.82S
THF RVR FALLS  CLOUDY    47  44  90 NW16      29.80S
BAUDETTE       CLOUDY    46  43  89 NW8       29.74S
WASKISH        DRIZZLE   46  45  93 W10       29.75F
CROOKSTON      CLOUDY    48  45  87 NW14      29.82S
STEPHEN NDAWN    N/A     48  46  93 N15         N/A
GREENBUSH NDAW   N/A     46  45  93 N12         N/A
$$
  *****  WEATHER ACROSS CENTRAL AND WEST MINNESOTA  *****

CITY           SKY/WX    TMP DP  RH WIND       PRES   REMARKS
FOSSTON        PTSUNNY   45  43  93 W10       29.80F
BEMIDJI        CLOUDY    45  43  95 W8        29.78S
PARK RAPIDS    CLOUDY    47  42  83 W13       29.80S
ELBOW LAKE     FAIR      46  43  90 CALM      29.87F
WADENA         DRIZZLE   45  41  87 NW7       29.83S
DETROIT LAKES  DRIZZLE   45  43  93 NW9       29.84S
MOORHEAD       FAIR      48  43  81 NW9       29.85F
FERGUS FALLS   FAIR      45  43  93 NW7       29.86S
MORRIS MN      FAIR      46  45  93 NW6       29.87S
STAPLES        DRIZZLE   46  43  87 W12       29.82S
$$
  *****  WEATHER ELSEWHERE ACROSS MINNESOTA  *****

CITY           SKY/WX    TMP DP  RH WIND       PRES   REMARKS
DULUTH         CLOUDY    46  44  93 W9        29.75S
INTRNTL FALLS  LGT RAIN  45  43  93 W6        29.72S FOG
ELY            CLOUDY    45  43  93 W7        29.71S
CLOQUET        CLOUDY    46  41  81 W10G16    29.76S
WHEATON        FAIR      46  41  81 CALM      29.90S
BRAINERD       CLOUDY    45  42  89 W9        29.81S
HIBBING        CLOUDY    44  44 100 W5        29.73S FOG
ALEXANDRIA     PTSUNNY   47  41  80 NW12      29.86F
SAINT CLOUD    FAIR      49  43  80 NW12      29.84S
MINNEAPOLIS    FAIR      50  41  71 W6        29.87S
$$

  *****  WEATHER ACROSS SOUTH DAKOTA  *****

CITY           SKY/WX    TMP DP  RH WIND       PRES   REMARKS
SIOUX FALLS    FAIR      53  47  79 W5        29.89S
BROOKINGS      FAIR      48  44  86 S3        29.88F
WATERTOWN      FAIR      46  43  89 CALM      29.86F
HURON          FAIR      50  45  83 W8        29.89R
SISSETON         N/A     46  43  89 NW6       29.88S
ABERDEEN       PTSUNNY   42  39  89 N6        29.89S FOG
MITCHELL       FAIR      51  46  83 W10       29.90S
PIERRE         LGT RAIN  49  45  86 NW10      29.93R
MOBRIDGE       PTSUNNY   54  43  66 NW16      29.88R
RAPID CITY     FAIR      48  42  80 N10       30.01R
$$

  *****  SOME WEATHER IN NEARBY STATES *****

CITY           SKY/WX    TMP DP  RH WIND       PRES   REMARKS
GLASGOW MT     FAIR      50  43  77 MISG      30.09R
GREAT FALLS MT CLOUDY    50  42  74 SW9       30.20R
CHEYENNE WY    FAIR      41  33  73 W10       30.18S
SCOTTSBLUFF NE FAIR      44  32  62 NW7       30.11S
OMAHA NE       PTSUNNY   60  49  66 SW5       29.96F
DES MOINES IA  PTSUNNY   58  44  60 S14       29.96F
DAVENPORT IA   FAIR      56  46  69 S10       30.02S
CHICAGO IL     FAIR      53  43  68 SW12      30.04R
EAU CLAIRE WI  FAIR      49  44  83 SW9       29.86F
LA CROSSE WI   FAIR      53  44  71 S10       29.91F
$$

  *****  SOME NATIONAL WEATHER *****

CITY           SKY/WX    TMP DP  RH WIND       PRES   REMARKS
LA GUARDIA NY  LGT RAIN  59  49  69 SE9       30.16S
RALEIGH NC     CLOUDY    70  68  93 SW15G23   30.02R
ATLANTA GA     PTSUNNY   74  69  85 CALM      30.08R
NEW ORLEANS LA CLOUDY    72  69  90 E7        30.04F
OKLAHOMA CITY  FAIR      59  53  80 CALM      30.10R
ALBUQUERQUE NM FAIR      58  26  29 N9        30.14R
SALT LAKE CITY FAIR      51  44  77 SE7       30.25R
LOS ANGELES CA FOG       59  58  96 W5        29.93R VSB 1
BOISE ID       FAIR      53  45  74 SE9       30.20R
SEATTLE WA     MOCLDY    58  50  75 NE5       30.17S
$$

*** WEATHER ACROSS MANITOBA...SASKATCHEWAN AND ONTARIO ***
                ***ONTARIO***

CITY           SKY/WX    TMP DP  RH WIND       PRES   REMARKS
GERALDTON      CLOUDY    45  45 100 SE6       29.65R
THUNDER BAY    PTSUNNY   48  45  87 W7        29.68S
SIOUX LOOKOUT  LGT RAIN  43  43 100 N5        29.67R FOG
TORONTO        CLOUDY    57  55  94 SE6       29.91R
BIG TROUT LK   PTSUNNY   46  34  61 NE7       29.94S
PICKLE LAKE    LGT RAIN  43  43 100 NE14G22   29.70S FOG
DRYDEN         LGT RAIN  43  41  93 NW3       29.69S
KENORA         LGT RAIN  43  41  93 N9        29.74R FOG
$$
                *** MANITOBA***

CITY           SKY/WX    TMP DP  RH WIND       PRES   REMARKS
BRANDON        PTSUNNY   52  39  62 N10       29.93R
DAUPHIN        PTSUNNY   54  39  58 N10       29.95S
ISLAND LAKE    NOT AVBL
PILOT MOUND      N/A     48  39  71 N14G20      N/A
THE PAS        PTSUNNY   46  36  66 N7        30.06R
THOMPSON       PTSUNNY   43  32  65 NE13      30.12S
WINNIPEG       LGT RAIN  48  43  81 N18       29.84F
LYNN LAKE      SUNNY     46  36  66 NE8       30.18S
CHURCHILL      FOG       30  30 100 NE9       30.30R VSB 3/8 WCI  22
$$
                ***SASKATCHEWAN***

CITY           SKY/WX    TMP DP  RH WIND       PRES   REMARKS
ESTEVAN        PTSUNNY   48  43  81 N6        30.02R
KINDERSLEY     SUNNY     48  39  71 N8        30.17R
LLOYDMINSTER   MOSUNNY   50  46  87 W3        30.21R
PRINCE ALBERT  MOSUNNY   52  43  71 NE5       30.14R
REGINA         MOSUNNY   48  45  87 N10       30.05R
YORKTON        PTSUNNY   48  41  76 N5        30.03R
N. BATTLEFORD  SUNNY     45  45 100 W3        30.20R
LA RONGE       MOSUNNY   46  43  87 E2        30.16R
SASKATOON      MOSUNNY   48  43  81 N9        30.15R
SWIFT CURRENT  SUNNY     48  41  76 N8        30.14R
$$
NOTE: THESE ARE AUTOMATED STATIONS WITH LIMITED QUALITY CONTROL
      "FAIR" INDICATES FEW OR NO CLOUDS BELOW 12,000 FEET WITH NO
      SIGNIFICANT WEATHER AND/OR OBSTRUCTIONS TO VISIBILITY.
      SKY/WX - SKY CONDITION AND SIGNIFICANT WEATHER.
      TMP - AIR TEMPERATURE.    DP   - DEWPOINT TEMPERATURE.
      RH  - RELATIVE HUMIDITY.  PRES - PRESSURE.
      HX  - HEAT INDEX.         WCI  - WIND CHILL INDEX.
$




USA.gov is the U.S. government's official web portal to all federal, state and local government web resources and services.